Location: Dompnac
(44.5644°N, 4.1026°E)
Time: 11:41:37
(UTC+00:00)

CZ-4 R/B - Pass Details

Date: 19 September 2020
Orbit: 530 x 600 km, 97.7° (Epoch: 29 October)

Event Time Altitude Azimuth Distance (km) Brightness Sun altitude
Rises 18:43:24 0° 184° (S) 2,833 4.9 -11.0°
Reaches altitude 10° 18:45:40 10° 191° (SSW) 1,937 4.1 -11.3°
Maximum altitude 18:49:39 40° 262° (W) 885 2.9 -12.0°
Drops below altitude 10° 18:53:39 10° 333° (NNW) 1,941 4.7 -12.7°
Sets 18:55:55 0° 341° (NNW) 2,841 5.5 -13.1°
